Lid_Strength_Index
8 7 8 11 12 9 14 14 16 15 12 9 8 8 8 7 6 6 5 4 4 3 3 2 2 2 1 1 1 1 0 0
7 7 7 9 8 13 13 17 18 15 15 14 11 10 8 8 7 6 5 5 4 3 3 2 2 1 1 1 1 1 0 0
8 9 10 10 11 11 11 13 15 16 13 9 9 9 9 8 7 6 6 5 4 4 3 2 2 1 1 1 1 1 1 0
9 7 7 8 9 9 13 14 13 14 13 8 8 7 7 7 6 6 5 5 4 4 3 2 2 2 2 1 1 1 0 0
11 9 8 9 9 9 10 10 12 14 12 7 7 7 7 7 6 5 5 5 4 4 4 3 2 2 2 1 1 1 0 1
12 11 10 12 11 10 10 11 11 11 10 9 9 9 8 7 6 5 5 5 5 4 4 3 2 2 2 2 1 1 1 1
9 10 10 11 11 11 11 11 11 10 12 11 10 9 8 7 6 6 6 5 5 4 4 3 3 3 2 2 2 1 1 1
11 9 9 11 10 11 11 11 11 11 12 8 8 7 7 7 7 6 6 5 5 4 4 4 3 3 2 2 1 1 1 1
12 10 11 13 11 10 11 10 11 13 10 8 9 9 8 7 6 6 6 5 4 4 4 3 3 3 3 2 1 1 1 1
12 11 17 10 8 8 9 9 9 9 9 9 8 7 7 6 6 6 5 5 5 4 3 3 2 2 2 2 2 2 2 2
13 14 12 11 9 10 10 9 8 9 9 8 7 7 7 5 5 5 5 4 4 4 3 3 2 2 2 2 2 2 2 2
13 15 16 11 8 6 7 12 7 8 8 8 7 11 9 5 4 4 5 5 5 5 4 4 4 3 2 3 2 2 2 2
13 14 12 8 7 6 13 11 7 7 7 7 8 7 6 4 4 4 4 4 5 6 6 5 4 4 3 3 4 3 2 2
12 14 15 6 7 11 8 6 6 6 6 7 6 6 5 4 4 4 4 5 4 5 6 6 6 6 6 6 4 4 4 3
11 10 7 6 6 5 5 6 6 6 6 6 6 5 5 5 4 4 3 4 4 5 6 6 6 6 8 8 6 5 5 5
10 8 7 6 5 5 5 5 5 4 5 4 5 4 4 4 4 3 3 3 3 4 6 6 7 7 7 7 7 7 8 7
9 7 6 6 5 5 4 4 4 4 4 4 4 4 4 4 3 3 3 3 3 4 4 5 5 6 6 6 5 6 7 8
8 6 6 5 4 4 5 5 4 4 4 3 3 4 3 3 3 3 3 2 3 4 4 4 5 5 4 4 4 5 5 6
6 4 5 4 4 3 4 4 4 3 3 4 3 3 3 3 3 3 2 2 2 2 3 3 4 4 3 2 3 3 4 4